| time (UTC) | temp C | wind direction | speed KPH | gust KPH | rain 1hr cm | rain 24hr cm | rain mn cm | humidity % | barometer mb |
| 20260509202013 | 31 | 26 | 1.6 | 9.7 | 0.00 | 0.00 | 0.00 | 51 | 1010.0 |
| 20260509201513 | 31 | 43 | 9.7 | 14.5 | 0.00 | 0.00 | 0.00 | 53 | 1010.1 |
| 20260509201012 | 31 | 53 | 1.6 | 14.5 | 0.00 | 0.00 | 0.00 | 54 | 1010.1 |
| 20260509200513 | 31 | 138 | 3.2 | 14.5 | 0.00 | 0.00 | 0.00 | 53 | 1010.1 |
| 20260509200012 | 31 | 51 | 3.2 | 12.9 | 0.00 | 0.00 | 0.00 | 52 | 1010.2 |
| 20260509195513 | 31 | 56 | 4.8 | 12.9 | 0.00 | 0.00 | 0.00 | 53 | 1010.3 |
| 20260509195010 | 31 | 320 | 1.6 | 12.9 | 0.00 | 0.00 | 0.00 | 53 | 1010.3 |
| 20260509194512 | 30 | 96 | 4.8 | 16.1 | 0.00 | 0.00 | 0.00 | 54 | 1010.4 |
| 20260509194013 | 31 | 131 | 6.4 | 16.1 | 0.00 | 0.00 | 0.00 | 52 | 1010.4 |
| 20260509193512 | 31 | 73 | 3.2 | 14.5 | 0.00 | 0.00 | 0.00 | 52 | 1010.4 |
| 20260509193014 | 31 | 69 | 4.8 | 14.5 | 0.00 | 0.00 | 0.00 | 55 | 1010.4 |
| 20260509192513 | 30 | 269 | 1.6 | 16.1 | 0.00 | 0.00 | 0.00 | 54 | 1010.5 |
| 20260509192012 | 30 | 0 | 0.0 | 16.1 | 0.00 | 0.00 | 0.00 | 52 | 1010.5 |
| 20260509191516 | 31 | 30 | 6.4 | 16.1 | 0.00 | 0.00 | 0.00 | 52 | 1010.6 |
| 20260509191012 | 30 | 0 | 0.0 | 11.3 | 0.00 | 0.00 | 0.00 | 53 | 1010.6 |
| 20260509190512 | 30 | 329 | 3.2 | 14.5 | 0.00 | 0.00 | 0.00 | 53 | 1010.7 |
| 20260509190010 | 30 | 15 | 1.6 | 14.5 | 0.00 | 0.00 | 0.00 | 53 | 1010.7 |
| 20260509185516 | 30 | 321 | 6.4 | 12.9 | 0.00 | 0.00 | 0.00 | 54 | 1010.8 |
| 20260509185012 | 30 | 5 | 4.8 | 9.7 | 0.00 | 0.00 | 0.00 | 55 | 1010.8 |
| 20260509184514 | 30 | 60 | 3.2 | 14.5 | 0.00 | 0.00 | 0.00 | 54 | 1010.8 |
| 20260509184014 | 30 | 57 | 8.0 | 14.5 | 0.00 | 0.00 | 0.00 | 54 | 1010.9 |
| 20260509183512 | 30 | 17 | 6.4 | 14.5 | 0.00 | 0.00 | 0.00 | 55 | 1010.9 |
| 20260509183014 | 30 | 28 | 6.4 | 16.1 | 0.00 | 0.00 | 0.00 | 55 | 1011.1 |
| 20260509182515 | 30 | 16 | 4.8 | 16.1 | 0.00 | 0.00 | 0.00 | 54 | 1011.2 |
| 20260509182010 | 29 | 316 | 9.7 | 12.9 | 0.00 | 0.00 | 0.00 | 56 | 1011.1 |
| 20260509181512 | 29 | 344 | 4.8 | 16.1 | 0.00 | 0.00 | 0.00 | 55 | 1011.2 |
| 20260509181011 | 29 | 58 | 6.4 | 16.1 | 0.00 | 0.00 | 0.00 | 56 | 1011.2 |
| 20260509180510 | 29 | 38 | 8.0 | 14.5 | 0.00 | 0.00 | 0.00 | 55 | 1011.3 |
| 20260509180013 | 29 | 348 | 8.0 | 14.5 | 0.00 | 0.00 | 0.00 | 56 | 1011.3 |
| 20260509175513 | 29 | 36 | 6.4 | 17.7 | 0.00 | 0.00 | 0.00 | 56 | 1011.4 |
| 20260509175010 | 29 | 10 | 8.0 | 17.7 | 0.00 | 0.00 | 0.00 | 55 | 1011.3 |
| 20260509174512 | 29 | 34 | 6.4 | 17.7 | 0.00 | 0.00 | 0.00 | 55 | 1011.4 |
| 20260509174013 | 30 | 352 | 6.4 | 14.5 | 0.00 | 0.00 | 0.00 | 55 | 1011.5 |
| 20260509173514 | 29 | 30 | 6.4 | 17.7 | 0.00 | 0.00 | 0.00 | 56 | 1011.4 |
| 20260509173013 | 28 | 330 | 4.8 | 17.7 | 0.00 | 0.00 | 0.00 | 55 | 1011.5 |
| 20260509172513 | 28 | 303 | 14.5 | 17.7 | 0.00 | 0.00 | 0.00 | 55 | 1011.5 |
| 20260509172014 | 28 | 323 | 9.7 | 17.7 | 0.00 | 0.00 | 0.00 | 56 | 1011.5 |
| 20260509171512 | 28 | 290 | 11.3 | 17.7 | 0.00 | 0.00 | 0.00 | 55 | 1011.6 |
| 20260509171011 | 28 | 336 | 9.7 | 17.7 | 0.00 | 0.00 | 0.00 | 55 | 1011.7 |
| 20260509170511 | 28 | 321 | 12.9 | 20.9 | 0.00 | 0.00 | 0.00 | 55 | 1011.6 |
| 20260509170011 | 28 | 352 | 6.4 | 20.9 | 0.00 | 0.00 | 0.00 | 55 | 1011.7 |
| 20260509165513 | 28 | 304 | 8.0 | 20.9 | 0.00 | 0.00 | 0.00 | 55 | 1011.7 |
| 20260509165012 | 28 | 309 | 11.3 | 19.3 | 0.00 | 0.00 | 0.00 | 56 | 1011.8 |
| 20260509164513 | 28 | 19 | 12.9 | 22.5 | 0.00 | 0.00 | 0.00 | 56 | 1011.8 |
| 20260509164013 | 28 | 339 | 4.8 | 22.5 | 0.00 | 0.00 | 0.00 | 56 | 1011.8 |
| 20260509163511 | 28 | 314 | 12.9 | 22.5 | 0.00 | 0.00 | 0.00 | 55 | 1011.9 |
| 20260509163010 | 28 | 322 | 19.3 | 22.5 | 0.00 | 0.00 | 0.00 | 56 | 1011.9 |
| 20260509162512 | 28 | 323 | 8.0 | 19.3 | 0.00 | 0.00 | 0.00 | 58 | 1011.8 |
| 20260509162010 | 27 | 303 | 11.3 | 19.3 | 0.00 | 0.00 | 0.00 | 57 | 1011.8 |
| 20260509161513 | 27 | 24 | 14.5 | 19.3 | 0.00 | 0.00 | 0.00 | 58 | 1011.8 |
| 20260509161011 | 27 | 40 | 8.0 | 20.9 | 0.00 | 0.00 | 0.00 | 57 | 1011.8 |
| 20260509160515 | 27 | 325 | 14.5 | 20.9 | 0.00 | 0.00 | 0.00 | 58 | 1011.8 |
| 20260509160013 | 27 | 335 | 8.0 | 17.7 | 0.00 | 0.00 | 0.00 | 59 | 1011.8 |
| 20260509155511 | 27 | 5 | 8.0 | 22.5 | 0.00 | 0.00 | 0.00 | 60 | 1011.7 |
| 20260509155013 | 27 | 15 | 14.5 | 24.1 | 0.00 | 0.00 | 0.00 | 61 | 1011.6 |
| 20260509154513 | 27 | 329 | 17.7 | 24.1 | 0.00 | 0.00 | 0.00 | 61 | 1011.6 |
| 20260509154021 | 26 | 52 | 8.0 | 20.9 | 0.00 | 0.00 | 0.00 | 61 | 1011.6 |
| 20260509153520 | 26 | 308 | 8.0 | 24.1 | 0.00 | 0.00 | 0.00 | 61 | 1011.6 |
| 20260509153020 | 26 | 351 | 9.7 | 24.1 | 0.00 | 0.00 | 0.00 | 61 | 1011.6 |
| 20260509152518 | 26 | 302 | 19.3 | 22.5 | 0.00 | 0.00 | 0.00 | 61 | 1011.6 |
| 20260509152019 | 26 | 333 | 14.5 | 22.5 | 0.00 | 0.00 | 0.00 | 63 | 1011.6 |
| 20260509151518 | 26 | 303 | 8.0 | 20.9 | 0.00 | 0.00 | 0.00 | 63 | 1011.7 |
| 20260509151021 | 25 | 323 | 14.5 | 19.3 | 0.00 | 0.00 | 0.00 | 65 | 1011.8 |
| 20260509150519 | 25 | 313 | 9.7 | 20.9 | 0.00 | 0.00 | 0.00 | 66 | 1011.8 |
| 20260509150019 | 25 | 316 | 8.0 | 22.5 | 0.00 | 0.00 | 0.00 | 66 | 1011.9 |
| 20260509145518 | 25 | 294 | 8.0 | 22.5 | 0.00 | 0.00 | 0.00 | 68 | 1011.9 |
| 20260509145020 | 25 | 327 | 19.3 | 22.5 | 0.00 | 0.00 | 0.00 | 69 | 1011.8 |
| 20260509144519 | 25 | 279 | 19.3 | 22.5 | 0.00 | 0.00 | 0.00 | 70 | 1011.9 |
| 20260509144021 | 25 | 327 | 14.5 | 17.7 | 0.00 | 0.00 | 0.00 | 71 | 1011.8 |
| 20260509143518 | 25 | 309 | 16.1 | 19.3 | 0.00 | 0.00 | 0.00 | 72 | 1011.8 |
| 20260509143018 | 24 | 348 | 8.0 | 19.3 | 0.00 | 0.00 | 0.00 | 72 | 1011.9 |
| 20260509142518 | 24 | 312 | 12.9 | 19.3 | 0.00 | 0.00 | 0.00 | 73 | 1011.8 |
| 20260509142018 | 24 | 5 | 12.9 | 17.7 | 0.00 | 0.00 | 0.00 | 74 | 1011.8 |
| 20260509141517 | 24 | 300 | 14.5 | 17.7 | 0.00 | 0.00 | 0.00 | 75 | 1011.7 |
| 20260509141017 | 23 | 360 | 6.4 | 17.7 | 0.00 | 0.00 | 0.00 | 75 | 1011.8 |
| 20260509140516 | 23 | 335 | 6.4 | 17.7 | 0.00 | 0.00 | 0.00 | 76 | 1011.8 |
| 20260509140017 | 23 | 328 | 6.4 | 17.7 | 0.00 | 0.00 | 0.00 | 77 | 1011.9 |
| 20260509135516 | 23 | 331 | 14.5 | 19.3 | 0.00 | 0.00 | 0.00 | 79 | 1011.9 |
| 20260509135016 | 23 | 333 | 12.9 | 19.3 | 0.00 | 0.00 | 0.00 | 80 | 1011.8 |
| 20260509134516 | 22 | 323 | 12.9 | 19.3 | 0.00 | 0.00 | 0.00 | 81 | 1011.8 |
| 20260509134016 | 22 | 346 | 8.0 | 16.1 | 0.00 | 0.00 | 0.00 | 82 | 1011.7 |
| 20260509133516 | 22 | 325 | 8.0 | 20.9 | 0.00 | 0.00 | 0.00 | 84 | 1011.8 |
| 20260509133016 | 22 | 324 | 6.4 | 20.9 | 0.00 | 0.00 | 0.00 | 84 | 1011.8 |
| 20260509132516 | 22 | 323 | 14.5 | 20.9 | 0.00 | 0.00 | 0.00 | 85 | 1011.6 |
| 20260509132015 | 21 | 309 | 6.4 | 20.9 | 0.00 | 0.00 | 0.00 | 85 | 1011.7 |
| 20260509131515 | 21 | 310 | 11.3 | 20.9 | 0.00 | 0.00 | 0.00 | 86 | 1011.6 |
| 20260509131015 | 21 | 324 | 12.9 | 16.1 | 0.00 | 0.00 | 0.00 | 87 | 1011.6 |
| 20260509130514 | 21 | 312 | 9.7 | 14.5 | 0.00 | 0.00 | 0.00 | 88 | 1011.7 |
| 20260509130014 | 21 | 340 | 4.8 | 14.5 | 0.00 | 0.00 | 0.00 | 89 | 1011.8 |
| 20260509125515 | 21 | 319 | 6.4 | 14.5 | 0.00 | 0.00 | 0.00 | 89 | 1011.6 |
| 20260509125016 | 20 | 69 | 6.4 | 16.1 | 0.00 | 0.00 | 0.00 | 89 | 1011.8 |
| 20260509124513 | 20 | 293 | 6.4 | 16.1 | 0.00 | 0.00 | 0.00 | 89 | 1011.6 |
| 20260509124015 | 20 | 328 | 9.7 | 14.5 | 0.00 | 0.00 | 0.00 | 89 | 1011.7 |
| 20260509123514 | 20 | 324 | 6.4 | 12.9 | 0.00 | 0.00 | 0.00 | 89 | 1011.7 |
| 20260509123014 | 20 | 360 | 3.2 | 8.0 | 0.00 | 0.00 | 0.00 | 89 | 1011.6 |
| 20260509122515 | 20 | 331 | 8.0 | 8.0 | 0.00 | 0.00 | 0.00 | 89 | 1011.6 |
| 20260509122013 | 20 | 303 | 3.2 | 11.3 | 0.00 | 0.00 | 0.00 | 89 | 1011.7 |
| 20260509121514 | 20 | 288 | 4.8 | 11.3 | 0.00 | 0.00 | 0.00 | 89 | 1011.5 |
| 20260509121013 | 20 | 294 | 4.8 | 12.9 | 0.00 | 0.00 | 0.00 | 89 | 1011.4 |
| 20260509120514 | 20 | 288 | 6.4 | 12.9 | 0.00 | 0.00 | 0.00 | 88 | 1011.4 |
| 20260509120013 | 20 | 281 | 6.4 | 14.5 | 0.00 | 0.00 | 0.00 | 88 | 1011.3 |
| 20260509115513 | 20 | 296 | 6.4 | 14.5 | 0.00 | 0.00 | 0.00 | 88 | 1011.4 |
| 20260509115014 | 20 | 321 | 6.4 | 12.9 | 0.00 | 0.00 | 0.00 | 87 | 1011.3 |
| 20260509114513 | 20 | 346 | 4.8 | 12.9 | 0.00 | 0.00 | 0.00 | 87 | 1011.2 |
| 20260509114015 | 20 | 325 | 3.2 | 12.9 | 0.00 | 0.00 | 0.00 | 86 | 1011.2 |
| 20260509113515 | 20 | 317 | 3.2 | 14.5 | 0.00 | 0.00 | 0.00 | 86 | 1011.1 |
| 20260509113014 | 20 | 299 | 11.3 | 19.3 | 0.00 | 0.00 | 0.00 | 85 | 1010.9 |
| 20260509112513 | 20 | 300 | 8.0 | 19.3 | 0.00 | 0.00 | 0.00 | 85 | 1010.9 |
| 20260509112011 | 21 | 312 | 17.7 | 19.3 | 0.00 | 0.00 | 0.00 | 83 | 1010.5 |
| 20260509111510 | 21 | 292 | 14.5 | 16.1 | 0.00 | 0.00 | 0.00 | 82 | 1010.6 |
| 20260509111013 | 21 | 288 | 6.4 | 12.9 | 0.00 | 0.00 | 0.00 | 82 | 1010.6 |
| 20260509110512 | 21 | 304 | 6.4 | 12.9 | 0.00 | 0.00 | 0.00 | 82 | 1010.2 |
| 20260509110011 | 21 | 297 | 3.2 | 12.9 | 0.00 | 0.00 | 0.00 | 82 | 1010.2 |
| 20260509105511 | 21 | 295 | 6.4 | 12.9 | 0.00 | 0.00 | 0.00 | 82 | 1010.0 |
| 20260509105012 | 21 | 290 | 6.4 | 12.9 | 0.00 | 0.00 | 0.00 | 81 | 1010.0 |
| 20260509104512 | 21 | 277 | 3.2 | 11.3 | 0.00 | 0.00 | 0.00 | 81 | 1010.2 |
| 20260509104012 | 21 | 254 | 3.2 | 11.3 | 0.00 | 0.00 | 0.00 | 81 | 1010.0 |
| 20260509103511 | 21 | 288 | 1.6 | 12.9 | 0.00 | 0.00 | 0.00 | 80 | 1010.0 |
| 20260509103011 | 21 | 0 | 0.0 | 12.9 | 0.00 | 0.00 | 0.00 | 80 | 1010.0 |
| 20260509102512 | 21 | 255 | 8.0 | 12.9 | 0.00 | 0.00 | 0.00 | 79 | 1010.0 |
| 20260509102015 | 21 | 280 | 4.8 | 6.4 | 0.00 | 0.00 | 0.00 | 79 | 1009.9 |
| 20260509101514 | 21 | 281 | 3.2 | 11.3 | 0.00 | 0.00 | 0.00 | 78 | 1009.9 |
| 20260509101015 | 21 | 288 | 4.8 | 11.3 | 0.00 | 0.00 | 0.00 | 78 | 1010.0 |
| 20260509100512 | 22 | 300 | 8.0 | 11.3 | 0.00 | 0.00 | 0.00 | 77 | 1010.0 |
| 20260509100013 | 22 | 287 | 4.8 | 14.5 | 0.00 | 0.00 | 0.00 | 76 | 1009.8 |
| 20260509095514 | 22 | 295 | 4.8 | 14.5 | 0.00 | 0.00 | 0.00 | 76 | 1009.8 |
| 20260509095012 | 22 | 323 | 6.4 | 14.5 | 0.00 | 0.00 | 0.00 | 75 | 1009.6 |
| 20260509094513 | 22 | 304 | 12.9 | 14.5 | 0.00 | 0.00 | 0.00 | 75 | 1009.3 |
| 20260509094012 | 22 | 331 | 9.7 | 14.5 | 0.00 | 0.00 | 0.00 | 76 | 1009.4 |
| 20260509093512 | 21 | 313 | 12.9 | 8.0 | 0.00 | 0.00 | 0.00 | 79 | 1009.1 |
| 20260509093014 | 21 | 323 | 1.6 | 6.4 | 0.00 | 0.00 | 0.00 | 81 | 1009.0 |
| 20260509092512 | 21 | 0 | 0.0 | 4.8 | 0.00 | 0.00 | 0.00 | 82 | 1009.1 |
| 20260509092013 | 22 | 0 | 0.0 | 16.1 | 0.00 | 0.00 | 0.00 | 82 | 1009.1 |
| 20260509091510 | 22 | 0 | 0.0 | 19.3 | 0.00 | 0.00 | 0.00 | 82 | 1009.0 |
| 20260509091013 | 22 | 340 | 1.6 | 19.3 | 0.00 | 0.00 | 0.00 | 83 | 1009.1 |
| 20260509090513 | 21 | 31 | 6.4 | 22.5 | 0.00 | 0.00 | 0.00 | 85 | 1008.8 |
| 20260509090013 | 21 | 0 | 0.0 | 22.5 | 0.00 | 0.00 | 0.00 | 86 | 1008.4 |
| 20260509085510 | 21 | 338 | 9.7 | 22.5 | 0.00 | 0.00 | 0.00 | 87 | 1008.5 |
| 20260509085011 | 21 | 235 | 4.8 | 24.1 | 0.00 | 0.00 | 0.00 | 88 | 1007.8 |
| 20260509084516 | 21 | 220 | 14.5 | 24.1 | 0.00 | 0.00 | 0.00 | 88 | 1007.9 |
| 20260509084018 | 21 | 157 | 14.5 | 25.7 | 0.00 | 0.00 | 0.00 | 88 | 1007.8 |
| 20260509083515 | 21 | 177 | 11.3 | 25.7 | 0.00 | 0.00 | 0.00 | 88 | 1007.4 |
| 20260509083017 | 21 | 192 | 11.3 | 24.1 | 0.00 | 0.00 | 0.00 | 88 | 1007.5 |
| 20260509082514 | 21 | 195 | 9.7 | 24.1 | 0.00 | 0.00 | 0.00 | 87 | 1007.7 |
| 20260509082016 | 21 | 221 | 8.0 | 19.3 | 0.00 | 0.00 | 0.00 | 87 | 1007.3 |
| 20260509081515 | 21 | 192 | 11.3 | 11.3 | 0.00 | 0.00 | 0.00 | 88 | 1007.3 |
| 20260509081015 | 21 | 177 | 4.8 | 20.9 | 0.00 | 0.00 | 0.00 | 89 | 1007.5 |
| 20260509080514 | 21 | 200 | 1.6 | 20.9 | 0.00 | 0.00 | 0.00 | 89 | 1008.1 |
| 20260509080015 | 21 | 178 | 8.0 | 16.1 | 0.00 | 0.00 | 0.00 | 89 | 1008.6 |
| 20260509075513 | 21 | 206 | 9.7 | 17.7 | 0.00 | 0.00 | 0.00 | 89 | 1009.0 |
| 20260509075016 | 21 | 223 | 8.0 | 17.7 | 0.00 | 0.00 | 0.00 | 88 | 1009.5 |
| 20260509074514 | 21 | 212 | 14.5 | 16.1 | 0.00 | 0.00 | 0.00 | 89 | 1009.8 |
| 20260509074014 | 21 | 209 | 9.7 | 17.7 | 0.00 | 0.00 | 0.00 | 89 | 1010.0 |
| 20260509073516 | 21 | 206 | 11.3 | 22.5 | 0.00 | 0.00 | 0.00 | 89 | 1010.4 |
| 20260509073014 | 21 | 217 | 11.3 | 22.5 | 0.00 | 0.00 | 0.00 | 89 | 1010.5 |
| 20260509072514 | 21 | 246 | 3.2 | 20.9 | 0.00 | 0.00 | 0.00 | 89 | 1010.9 |
| 20260509072013 | 21 | 265 | 6.4 | 20.9 | 0.00 | 0.00 | 0.00 | 88 | 1010.7 |
| 20260509071513 | 21 | 208 | 9.7 | 17.7 | 0.00 | 0.00 | 0.00 | 88 | 1011.0 |
| 20260509071013 | 21 | 218 | 9.7 | 17.7 | 0.00 | 0.00 | 0.00 | 88 | 1011.3 |
| 20260509070515 | 21 | 209 | 6.4 | 19.3 | 0.00 | 0.00 | 0.00 | 89 | 1011.6 |
| 20260509070013 | 21 | 229 | 14.5 | 19.3 | 0.00 | 0.00 | 0.00 | 89 | 1011.6 |
| 20260509065512 | 21 | 231 | 11.3 | 16.1 | 0.00 | 0.00 | 0.00 | 89 | 1011.8 |
| 20260509065014 | 21 | 225 | 4.8 | 12.9 | 0.00 | 0.00 | 0.00 | 90 | 1011.8 |
| 20260509064514 | 21 | 242 | 4.8 | 12.9 | 0.00 | 0.00 | 0.00 | 90 | 1012.1 |
| 20260509064014 | 21 | 286 | 1.6 | 12.9 | 0.00 | 0.00 | 0.00 | 90 | 1012.2 |
| 20260509063513 | 21 | 275 | 6.4 | 8.0 | 0.00 | 0.00 | 0.00 | 89 | 1012.1 |
| 20260509063012 | 21 | 253 | 6.4 | 8.0 | 0.00 | 0.00 | 0.00 | 89 | 1012.0 |
| 20260509062512 | 21 | 0 | 0.0 | 9.7 | 0.00 | 0.00 | 0.00 | 89 | 1012.1 |
| 20260509062013 | 21 | 261 | 4.8 | 9.7 | 0.00 | 0.00 | 0.00 | 89 | 1012.1 |
| 20260509061512 | 21 | 261 | 4.8 | 6.4 | 0.00 | 0.00 | 0.00 | 89 | 1012.1 |
| 20260509061014 | 21 | 230 | 3.2 | 6.4 | 0.00 | 0.00 | 0.00 | 89 | 1012.2 |
| 20260509060511 | 21 | 229 | 1.6 | 6.4 | 0.00 | 0.00 | 0.00 | 88 | 1012.0 |
| 20260509060015 | 21 | 0 | 0.0 | 9.7 | 0.00 | 0.00 | 0.00 | 88 | 1012.1 |
| 20260509055512 | 21 | 230 | 1.6 | 9.7 | 0.00 | 0.00 | 0.00 | 88 | 1012.0 |
| 20260509055010 | 21 | 259 | 6.4 | 9.7 | 0.00 | 0.00 | 0.00 | 87 | 1011.8 |
| 20260509054511 | 21 | 341 | 1.6 | 3.2 | 0.00 | 0.00 | 0.00 | 87 | 1012.2 |
| 20260509054013 | 21 | 0 | 0.0 | 3.2 | 0.00 | 0.00 | 0.00 | 86 | 1012.3 |
| 20260509053510 | 21 | 341 | 1.6 | 3.2 | 0.00 | 0.00 | 0.00 | 86 | 1012.1 |
| 20260509053010 | 21 | 0 | 0.0 | 4.8 | 0.00 | 0.00 | 0.00 | 86 | 1012.3 |
| 20260509052513 | 21 | 0 | 0.0 | 6.4 | 0.00 | 0.00 | 0.00 | 86 | 1012.3 |
| 20260509052013 | 21 | 341 | 3.2 | 6.4 | 0.00 | 0.00 | 0.00 | 86 | 1012.5 |
| 20260509051511 | 22 | 351 | 1.6 | 9.7 | 0.00 | 0.00 | 0.00 | 85 | 1012.5 |
| 20260509051013 | 22 | 351 | 4.8 | 11.3 | 0.00 | 0.00 | 0.00 | 86 | 1012.5 |
| 20260509050512 | 22 | 352 | 9.7 | 11.3 | 0.00 | 0.00 | 0.00 | 86 | 1012.6 |
| 20260509050015 | 22 | 323 | 6.4 | 6.4 | 0.00 | 0.00 | 0.03 | 85 | 1012.2 |
| 20260509045513 | 22 | 0 | 0.0 | 8.0 | 0.00 | 0.00 | 0.03 | 85 | 1011.6 |
| 20260509045012 | 22 | 0 | 0.0 | 9.7 | 0.00 | 0.00 | 0.03 | 85 | 1011.7 |
| 20260509044511 | 22 | 169 | 3.2 | 9.7 | 0.00 | 0.00 | 0.03 | 85 | 1011.6 |
| 20260509044015 | 22 | 171 | 6.4 | 9.7 | 0.00 | 0.00 | 0.03 | 85 | 1011.5 |
| 20260509043512 | 22 | 189 | 4.8 | 9.7 | 0.00 | 0.00 | 0.03 | 85 | 1011.3 |
| 20260509043011 | 22 | 182 | 3.2 | 16.1 | 0.00 | 0.00 | 0.03 | 85 | 1011.2 |
| 20260509042512 | 22 | 165 | 6.4 | 16.1 | 0.00 | 0.00 | 0.03 | 84 | 1011.2 |
| 20260509042012 | 22 | 184 | 6.4 | 12.9 | 0.00 | 0.00 | 0.03 | 84 | 1010.8 |
| 20260509041510 | 22 | 164 | 3.2 | 9.7 | 0.00 | 0.00 | 0.03 | 84 | 1010.9 |
| 20260509041013 | 22 | 164 | 8.0 | 9.7 | 0.00 | 0.00 | 0.03 | 84 | 1011.0 |
| 20260509040512 | 22 | 171 | 8.0 | 8.0 | 0.00 | 0.00 | 0.03 | 84 | 1011.1 |
| 20260509040014 | 22 | 176 | 3.2 | 9.7 | 0.00 | 0.00 | 0.03 | 83 | 1011.3 |
| 20260509035510 | 22 | 154 | 4.8 | 9.7 | 0.00 | 0.00 | 0.03 | 83 | 1011.2 |
| 20260509035011 | 22 | 123 | 6.4 | 9.7 | 0.00 | 0.00 | 0.03 | 83 | 1011.2 |
| 20260509034512 | 22 | 59 | 3.2 | 6.4 | 0.00 | 0.00 | 0.03 | 83 | 1011.4 |
| 20260509034013 | 22 | 57 | 4.8 | 8.0 | 0.00 | 0.00 | 0.03 | 83 | 1011.4 |
| 20260509033514 | 22 | 56 | 1.6 | 8.0 | 0.00 | 0.00 | 0.03 | 83 | 1011.6 |
| 20260509033014 | 22 | 60 | 3.2 | 9.7 | 0.00 | 0.00 | 0.03 | 83 | 1011.6 |
| 20260509032512 | 22 | 82 | 1.6 | 9.7 | 0.00 | 0.00 | 0.03 | 83 | 1011.4 |
| 20260509032028 | 22 | 84 | 4.8 | 8.0 | 0.00 | 0.00 | 0.03 | 83 | 1011.3 |
| 20260509031527 | 22 | 109 | 3.2 | 11.3 | 0.00 | 0.00 | 0.03 | 83 | 1011.0 |
| 20260509031028 | 22 | 0 | 0.0 | 12.9 | 0.00 | 0.00 | 0.03 | 83 | 1010.5 |
| 20260509030528 | 22 | 144 | 4.8 | 12.9 | 0.00 | 0.00 | 0.03 | 83 | 1010.0 |
| 20260509030029 | 22 | 151 | 8.0 | 12.9 | 0.00 | 0.00 | 0.03 | 83 | 1010.1 |
| 20260509025528 | 22 | 125 | 6.4 | 11.3 | 0.00 | 0.00 | 0.03 | 83 | 1010.1 |
| 20260509025027 | 22 | 145 | 4.8 | 12.9 | 0.00 | 0.00 | 0.03 | 83 | 1010.1 |
| 20260509024526 | 22 | 144 | 1.6 | 16.1 | 0.00 | 0.00 | 0.03 | 83 | 1010.1 |
| 20260509024027 | 22 | 149 | 9.7 | 16.1 | 0.00 | 0.00 | 0.03 | 83 | 1009.9 |
| 20260509023526 | 22 | 134 | 4.8 | 17.7 | 0.00 | 0.00 | 0.03 | 82 | 1009.6 |
| 20260509023028 | 22 | 126 | 11.3 | 17.7 | 0.00 | 0.00 | 0.03 | 82 | 1009.5 |
| 20260509022525 | 22 | 163 | 9.7 | 17.7 | 0.00 | 0.00 | 0.03 | 82 | 1009.4 |
| 20260509022026 | 22 | 193 | 12.9 | 17.7 | 0.00 | 0.00 | 0.03 | 82 | 1009.1 |
| 20260509021526 | 22 | 206 | 11.3 | 17.7 | 0.00 | 0.00 | 0.03 | 82 | 1009.2 |
| 20260509021025 | 22 | 163 | 9.7 | 16.1 | 0.00 | 0.00 | 0.03 | 82 | 1009.4 |
| 20260509020525 | 22 | 171 | 11.3 | 17.7 | 0.00 | 0.00 | 0.03 | 81 | 1009.1 |
| 20260509020025 | 22 | 197 | 9.7 | 17.7 | 0.00 | 0.00 | 0.03 | 81 | 1009.0 |
| 20260509015525 | 22 | 170 | 8.0 | 17.7 | 0.00 | 0.00 | 0.03 | 81 | 1009.1 |
| 20260509015025 | 22 | 157 | 9.7 | 14.5 | 0.00 | 0.00 | 0.03 | 81 | 1009.3 |
| 20260509014525 | 22 | 171 | 8.0 | 12.9 | 0.00 | 0.00 | 0.03 | 81 | 1009.4 |
| 20260509014025 | 22 | 183 | 4.8 | 12.9 | 0.00 | 0.00 | 0.03 | 81 | 1009.6 |
| 20260509013524 | 22 | 163 | 3.2 | 11.3 | 0.00 | 0.00 | 0.03 | 81 | 1009.7 |
| 20260509013024 | 22 | 142 | 3.2 | 11.3 | 0.00 | 0.00 | 0.03 | 81 | 1009.6 |
| 20260509012526 | 22 | 135 | 11.3 | 11.3 | 0.00 | 0.00 | 0.03 | 81 | 1009.6 |
| 20260509012024 | 22 | 142 | 4.8 | 9.7 | 0.00 | 0.00 | 0.03 | 80 | 1009.7 |
| 20260509011525 | 22 | 155 | 3.2 | 11.3 | 0.00 | 0.00 | 0.03 | 80 | 1009.8 |
| 20260509011026 | 22 | 144 | 4.8 | 11.3 | 0.00 | 0.00 | 0.03 | 80 | 1009.6 |
| 20260509010524 | 22 | 162 | 6.4 | 11.3 | 0.00 | 0.00 | 0.03 | 80 | 1009.5 |
| 20260509010023 | 22 | 152 | 4.8 | 14.5 | 0.00 | 0.00 | 0.03 | 80 | 1009.5 |
| 20260509005523 | 22 | 146 | 6.4 | 16.1 | 0.00 | 0.00 | 0.03 | 80 | 1009.2 |
| 20260509005023 | 22 | 188 | 6.4 | 17.7 | 0.00 | 0.00 | 0.03 | 80 | 1009.2 |
| 20260509004522 | 22 | 160 | 11.3 | 17.7 | 0.00 | 0.00 | 0.03 | 79 | 1008.9 |
| 20260509004023 | 22 | 175 | 4.8 | 14.5 | 0.00 | 0.00 | 0.03 | 79 | 1009.0 |
| 20260509003522 | 22 | 158 | 8.0 | 17.7 | 0.00 | 0.00 | 0.03 | 79 | 1009.0 |
| 20260509003025 | 22 | 194 | 6.4 | 22.5 | 0.00 | 0.00 | 0.03 | 79 | 1008.9 |
| 20260509002522 | 22 | 169 | 9.7 | 22.5 | 0.00 | 0.00 | 0.03 | 79 | 1008.8 |
| 20260509002023 | 22 | 161 | 12.9 | 19.3 | 0.00 | 0.00 | 0.03 | 79 | 1008.8 |
| 20260509001522 | 22 | 156 | 8.0 | 19.3 | 0.00 | 0.00 | 0.03 | 78 | 1008.7 |
| 20260509001023 | 22 | 157 | 9.7 | 19.3 | 0.00 | 0.00 | 0.03 | 78 | 1008.8 |
| 20260509000523 | 22 | 153 | 11.3 | 17.7 | 0.00 | 0.00 | 0.03 | 78 | 1008.8 |
| 20260509000024 | 22 | 161 | 9.7 | 14.5 | 0.00 | 0.00 | 0.03 | 78 | 1009.0 |
| 20260508235522 | 22 | 162 | 6.4 | 16.1 | 0.00 | 0.00 | 0.03 | 78 | 1009.1 |
| 20260508235022 | 22 | 175 | 4.8 | 16.1 | 0.00 | 0.00 | 0.03 | 78 | 1009.2 |
| 20260508234523 | 22 | 170 | 3.2 | 16.1 | 0.00 | 0.00 | 0.03 | 77 | 1009.3 |
| 20260508234022 | 22 | 155 | 4.8 | 17.7 | 0.00 | 0.00 | 0.03 | 77 | 1009.3 |
| 20260508233520 | 23 | 202 | 14.5 | 22.5 | 0.00 | 0.00 | 0.03 | 77 | 1009.4 |
| 20260508233021 | 23 | 219 | 11.3 | 22.5 | 0.00 | 0.00 | 0.03 | 76 | 1009.4 |
| 20260508232522 | 23 | 189 | 6.4 | 17.7 | 0.00 | 0.00 | 0.03 | 77 | 1009.3 |
| 20260508232020 | 23 | 197 | 9.7 | 17.7 | 0.00 | 0.00 | 0.03 | 76 | 1009.4 |
| 20260508231521 | 23 | 198 | 11.3 | 17.7 | 0.00 | 0.00 | 0.03 | 76 | 1009.6 |
| 20260508231020 | 23 | 153 | 6.4 | 16.1 | 0.00 | 0.00 | 0.03 | 76 | 1009.5 |
| 20260508230520 | 23 | 167 | 4.8 | 16.1 | 0.00 | 0.00 | 0.03 | 75 | 1009.6 |
| 20260508230019 | 23 | 150 | 4.8 | 16.1 | 0.00 | 0.00 | 0.03 | 75 | 1009.4 |
| 20260508225519 | 23 | 159 | 8.0 | 17.7 | 0.00 | 0.00 | 0.03 | 75 | 1009.4 |
| 20260508225018 | 23 | 159 | 8.0 | 19.3 | 0.00 | 0.00 | 0.03 | 75 | 1009.4 |
| 20260508224520 | 23 | 162 | 12.9 | 19.3 | 0.00 | 0.00 | 0.03 | 75 | 1009.5 |
| 20260508224018 | 23 | 178 | 12.9 | 20.9 | 0.00 | 0.00 | 0.03 | 74 | 1009.4 |
| 20260508223518 | 23 | 184 | 9.7 | 20.9 | 0.00 | 0.00 | 0.03 | 75 | 1009.4 |
| 20260508223018 | 23 | 194 | 9.7 | 20.9 | 0.00 | 0.00 | 0.03 | 74 | 1009.6 |
| 20260508222518 | 23 | 196 | 11.3 | 20.9 | 0.00 | 0.00 | 0.03 | 73 | 1009.6 |
| 20260508222017 | 23 | 136 | 12.9 | 20.9 | 0.00 | 0.00 | 0.03 | 73 | 1009.5 |
| 20260508221520 | 23 | 153 | 12.9 | 20.9 | 0.00 | 0.00 | 0.03 | 73 | 1009.5 |
| 20260508221017 | 23 | 200 | 14.5 | 20.9 | 0.00 | 0.00 | 0.03 | 73 | 1009.7 |
| 20260508220517 | 23 | 197 | 8.0 | 20.9 | 0.00 | 0.00 | 0.03 | 71 | 1009.7 |
| 20260508220019 | 23 | 192 | 8.0 | 22.5 | 0.00 | 0.00 | 0.03 | 70 | 1009.5 |
| 20260508215517 | 23 | 215 | 9.7 | 27.4 | 0.00 | 0.00 | 0.03 | 71 | 1009.5 |
| 20260508215016 | 23 | 170 | 8.0 | 27.4 | 0.00 | 0.00 | 0.03 | 71 | 1009.7 |
| 20260508214515 | 23 | 164 | 9.7 | 24.1 | 0.00 | 0.00 | 0.03 | 71 | 1009.7 |
| 20260508214016 | 23 | 182 | 8.0 | 25.7 | 0.00 | 0.00 | 0.03 | 70 | 1009.9 |
| 20260508213517 | 23 | 150 | 12.9 | 25.7 | 0.00 | 0.00 | 0.03 | 70 | 1009.8 |
| 20260508213015 | 23 | 184 | 11.3 | 22.5 | 0.00 | 0.00 | 0.03 | 70 | 1009.8 |
| 20260508212515 | 23 | 130 | 11.3 | 20.9 | 0.00 | 0.00 | 0.03 | 69 | 1009.9 |
| 20260508212017 | 23 | 208 | 9.7 | 22.5 | 0.00 | 0.00 | 0.03 | 70 | 1010.0 |
| 20260508211517 | 23 | 214 | 14.5 | 22.5 | 0.00 | 0.00 | 0.03 | 70 | 1010.0 |
| 20260508211015 | 23 | 130 | 6.4 | 20.9 | 0.00 | 0.00 | 0.03 | 70 | 1010.0 |
| 20260508210514 | 23 | 171 | 9.7 | 24.1 | 0.00 | 0.00 | 0.03 | 70 | 1010.2 |
| 20260508210014 | 23 | 173 | 9.7 | 24.1 | 0.00 | 0.00 | 0.03 | 71 | 1010.4 |
| 20260508205515 | 23 | 156 | 9.7 | 22.5 | 0.00 | 0.00 | 0.03 | 69 | 1010.5 |
| 20260508205013 | 23 | 140 | 16.1 | 22.5 | 0.00 | 0.00 | 0.03 | 69 | 1010.2 |
| 20260508204514 | 23 | 123 | 8.0 | 17.7 | 0.00 | 0.00 | 0.03 | 70 | 1010.1 |
| 20260508204014 | 23 | 129 | 12.9 | 17.7 | 0.00 | 0.00 | 0.03 | 71 | 1010.2 |
| 20260508203514 | 22 | 161 | 9.7 | 17.7 | 0.00 | 0.00 | 0.03 | 70 | 1010.2 |
| 20260508203014 | 22 | 164 | 8.0 | 19.3 | 0.00 | 0.00 | 0.03 | 71 | 1010.8 |
| 20260508202514 | 22 | 142 | 12.9 | 19.3 | 0.00 | 0.00 | 0.03 | 72 | 1011.3 |